| time (UTC) | temp F | wind direction | speed MPH | gust MPH | rain 1hr in | rain 24hr in | rain mn in | humidity % | barometer mb |
| 20260901024046 | 69 | 181 | 0.0 | 1.0 | 0.01 | 0.06 | 0.06 | 92 | 1040.5 |
| 20260901023545 | 70 | 181 | 0.0 | 1.0 | 0.01 | 0.06 | 0.06 | 92 | 1040.7 |
| 20260901023046 | 70 | 181 | 0.0 | 0.0 | 0.01 | 0.06 | 0.06 | 92 | 1040.6 |
| 20260901022545 | 70 | 181 | 0.0 | 0.0 | 0.01 | 0.06 | 0.06 | 92 | 1040.7 |
| 20260901022045 | 70 | 181 | 0.0 | 0.0 | 0.00 | 0.05 | 0.05 | 92 | 1040.9 |
| 20260901021545 | 70 | 181 | 0.0 | 1.0 | 0.00 | 0.05 | 0.05 | 92 | 1040.9 |
| 20260901021045 | 70 | 181 | 0.0 | 1.0 | 0.00 | 0.05 | 0.05 | 92 | 1041.0 |
| 20260901020545 | 70 | 181 | 0.0 | 1.0 | 0.00 | 0.05 | 0.05 | 92 | 1040.9 |
| 20260901020044 | 70 | 181 | 0.0 | 1.0 | 0.00 | 0.05 | 0.05 | 92 | 1040.8 |
| 20260901015544 | 70 | 181 | 0.0 | 1.0 | 0.00 | 0.05 | 0.05 | 91 | 1040.9 |
| 20260901015044 | 70 | 181 | 0.0 | 0.0 | 0.00 | 0.05 | 0.05 | 92 | 1040.8 |
| 20260901014544 | 70 | 181 | 0.0 | 1.0 | 0.00 | 0.05 | 0.05 | 91 | 1040.7 |
| 20260901014044 | 70 | 181 | 0.0 | 1.0 | 0.00 | 0.05 | 0.05 | 92 | 1040.7 |
| 20260901013544 | 70 | 181 | 0.0 | 1.0 | 0.00 | 0.05 | 0.05 | 92 | 1040.8 |
| 20260901013045 | 70 | 181 | 0.0 | 1.0 | 0.00 | 0.05 | 0.05 | 92 | 1040.7 |
| 20260901012544 | 70 | 181 | 0.0 | 1.0 | 0.00 | 0.05 | 0.05 | 91 | 1040.6 |
| 20260901012045 | 70 | 181 | 0.0 | 0.0 | 0.00 | 0.05 | 0.05 | 91 | 1040.6 |
| 20260901011543 | 70 | 181 | 0.0 | 1.0 | 0.00 | 0.05 | 0.05 | 91 | 1040.7 |
| 20260901011043 | 70 | 181 | 0.0 | 1.0 | 0.00 | 0.05 | 0.05 | 91 | 1040.6 |
| 20260901010543 | 70 | 181 | 0.0 | 0.0 | 0.00 | 0.05 | 0.05 | 91 | 1040.4 |
| 20260901010043 | 70 | 181 | 0.0 | 0.0 | 0.00 | 0.05 | 0.05 | 91 | 1040.4 |
| 20260901005543 | 70 | 181 | 0.0 | 0.0 | 0.00 | 0.05 | 0.05 | 91 | 1040.4 |
| 20260901005043 | 70 | 181 | 0.0 | 0.0 | 0.00 | 0.05 | 0.05 | 90 | 1040.2 |
| 20260901004542 | 70 | 181 | 0.0 | 0.0 | 0.00 | 0.05 | 0.05 | 90 | 1040.2 |
| 20260901004042 | 70 | 181 | 0.0 | 0.0 | 0.00 | 0.05 | 0.05 | 91 | 1040.1 |
| 20260901003542 | 70 | 181 | 0.0 | 0.0 | 0.00 | 0.05 | 0.05 | 91 | 1040.1 |
| 20260901003041 | 70 | 181 | 0.0 | 0.0 | 0.00 | 0.05 | 0.05 | 91 | 1040.0 |
| 20260901002542 | 70 | 181 | 0.0 | 0.0 | 0.00 | 0.05 | 0.05 | 91 | 1040.0 |
| 20260901002043 | 70 | 181 | 0.0 | 0.0 | 0.00 | 0.05 | 0.05 | 91 | 1040.0 |
| 20260901001542 | 70 | 181 | 0.0 | 0.0 | 0.00 | 0.05 | 0.05 | 90 | 1039.9 |
| 20260901001041 | 70 | 181 | 0.0 | 0.0 | 0.00 | 0.05 | 0.05 | 90 | 1040.0 |
| 20260901000541 | 70 | 181 | 0.0 | 0.0 | 0.00 | 0.05 | 0.05 | 90 | 1040.0 |
| 20260901000045 | 70 | 181 | 0.0 | 0.0 | 0.00 | 0.05 | 0.05 | 90 | 1040.1 |
| 20260831235540 | 71 | 181 | 0.0 | 0.0 | 0.00 | 0.05 | 0.05 | 90 | 1040.0 |
| 20260831235040 | 71 | 181 | 0.0 | 0.0 | 0.00 | 0.05 | 0.05 | 90 | 1040.1 |
| 20260831234540 | 71 | 181 | 0.0 | 0.0 | 0.00 | 0.05 | 0.05 | 90 | 1040.0 |
| 20260831234039 | 71 | 181 | 0.0 | 0.0 | 0.00 | 0.05 | 0.05 | 90 | 1040.1 |
| 20260831233538 | 71 | 181 | 0.0 | 0.0 | 0.00 | 0.05 | 0.05 | 90 | 1040.1 |
| 20260831233038 | 71 | 181 | 0.0 | 0.0 | 0.00 | 0.05 | 0.05 | 90 | 1040.1 |
| 20260831232538 | 71 | 181 | 0.0 | 0.0 | 0.00 | 0.05 | 0.05 | 89 | 1040.1 |
| 20260831232038 | 72 | 181 | 0.0 | 0.0 | 0.00 | 0.05 | 0.05 | 89 | 1040.1 |
| 20260831231537 | 72 | 181 | 0.0 | 0.0 | 0.00 | 0.05 | 0.05 | 88 | 1040.1 |
| 20260831231037 | 72 | 181 | 0.0 | 0.0 | 0.00 | 0.05 | 0.05 | 88 | 1040.2 |
| 20260831230540 | 72 | 181 | 0.0 | 0.0 | 0.00 | 0.05 | 0.05 | 87 | 1040.2 |
| 20260831230043 | 73 | 181 | 0.0 | 0.0 | 0.00 | 0.05 | 0.05 | 87 | 1040.1 |
| 20260831225538 | 73 | 181 | 0.0 | 0.0 | 0.00 | 0.05 | 0.05 | 87 | 1040.2 |
| 20260831225038 | 73 | 181 | 0.0 | 0.0 | 0.00 | 0.05 | 0.05 | 87 | 1040.4 |
| 20260831224538 | 73 | 181 | 0.0 | 0.0 | 0.00 | 0.05 | 0.05 | 87 | 1040.3 |
| 20260831224039 | 73 | 181 | 0.0 | 0.0 | 0.00 | 0.05 | 0.05 | 87 | 1040.4 |
| 20260831223537 | 73 | 181 | 0.0 | 0.0 | 0.00 | 0.05 | 0.05 | 87 | 1040.3 |
| 20260831223035 | 73 | 181 | 0.0 | 1.0 | 0.00 | 0.05 | 0.05 | 87 | 1040.4 |
| 20260831222534 | 73 | 181 | 0.0 | 1.0 | 0.00 | 0.05 | 0.05 | 87 | 1040.4 |
| 20260831222035 | 73 | 180 | 0.0 | 0.0 | 0.00 | 0.05 | 0.05 | 87 | 1040.5 |
| 20260831221536 | 73 | 180 | 0.0 | 0.0 | 0.00 | 0.05 | 0.05 | 87 | 1040.5 |
| 20260831221033 | 73 | 177 | 0.0 | 0.0 | 0.00 | 0.05 | 0.05 | 87 | 1040.6 |
| 20260831220534 | 73 | 177 | 0.0 | 0.0 | 0.00 | 0.05 | 0.05 | 86 | 1040.6 |
| 20260831220035 | 73 | 177 | 0.0 | 0.0 | 0.00 | 0.05 | 0.05 | 88 | 1040.8 |
| 20260831215532 | 73 | 177 | 0.0 | 0.0 | 0.00 | 0.05 | 0.05 | 88 | 1040.8 |
| 20260831215032 | 73 | 177 | 0.0 | 0.0 | 0.00 | 0.05 | 0.05 | 88 | 1040.9 |
| 20260831214555 | 73 | 177 | 0.0 | 0.0 | 0.00 | 0.05 | 0.05 | 88 | 1040.9 |
| 20260831214031 | 73 | 177 | 0.0 | 0.0 | 0.00 | 0.05 | 0.05 | 87 | 1040.9 |
| 20260831213531 | 73 | 177 | 0.0 | 0.0 | 0.00 | 0.05 | 0.05 | 87 | 1040.9 |
| 20260831213031 | 73 | 177 | 0.0 | 0.0 | 0.00 | 0.05 | 0.05 | 86 | 1040.9 |
| 20260831212531 | 73 | 177 | 0.0 | 0.0 | 0.00 | 0.05 | 0.05 | 86 | 1040.9 |
| 20260831212031 | 73 | 177 | 0.0 | 1.0 | 0.00 | 0.05 | 0.05 | 86 | 1040.9 |
| 20260831211530 | 73 | 178 | 0.0 | 1.0 | 0.00 | 0.05 | 0.05 | 86 | 1040.7 |
| 20260831211029 | 73 | 175 | 0.0 | 0.0 | 0.00 | 0.05 | 0.05 | 86 | 1040.9 |
| 20260831210529 | 73 | 175 | 0.0 | 0.0 | 0.00 | 0.05 | 0.05 | 86 | 1041.1 |
| 20260831210030 | 73 | 175 | 0.0 | 0.0 | 0.00 | 0.05 | 0.05 | 86 | 1041.1 |
| 20260831205529 | 73 | 175 | 0.0 | 0.0 | 0.00 | 0.05 | 0.05 | 87 | 1041.2 |
| 20260831205029 | 73 | 175 | 0.0 | 0.0 | 0.00 | 0.05 | 0.05 | 86 | 1041.1 |
| 20260831204530 | 73 | 158 | 0.0 | 2.0 | 0.00 | 0.05 | 0.05 | 86 | 1041.2 |
| 20260831204028 | 73 | 158 | 0.0 | 2.0 | 0.00 | 0.05 | 0.05 | 85 | 1041.2 |
| 20260831203526 | 73 | 168 | 0.0 | 0.0 | 0.00 | 0.05 | 0.05 | 86 | 1041.2 |
| 20260831203027 | 73 | 166 | 0.0 | 0.0 | 0.00 | 0.05 | 0.05 | 87 | 1041.3 |
| 20260831202527 | 73 | 166 | 0.0 | 0.0 | 0.00 | 0.05 | 0.05 | 86 | 1041.4 |
| 20260831202030 | 73 | 166 | 0.0 | 1.0 | 0.00 | 0.05 | 0.05 | 87 | 1041.5 |
| 20260831201534 | 73 | 166 | 0.0 | 1.0 | 0.00 | 0.05 | 0.05 | 86 | 1041.3 |
| 20260831201028 | 73 | 168 | 0.0 | 0.0 | 0.00 | 0.05 | 0.05 | 85 | 1041.4 |
| 20260831200525 | 74 | 168 | 0.0 | 0.0 | 0.00 | 0.05 | 0.05 | 85 | 1041.2 |
| 20260831200038 | 74 | 168 | 0.0 | 0.0 | 0.00 | 0.05 | 0.05 | 85 | 1041.4 |
| 20260831195525 | 74 | 168 | 0.0 | 1.0 | 0.00 | 0.05 | 0.05 | 84 | 1041.5 |
| 20260831195024 | 74 | 168 | 0.0 | 2.0 | 0.00 | 0.05 | 0.05 | 84 | 1041.6 |
| 20260831194524 | 74 | 122 | 0.0 | 2.0 | 0.00 | 0.05 | 0.05 | 85 | 1041.6 |
| 20260831194024 | 74 | 65 | 0.0 | 2.0 | 0.00 | 0.05 | 0.05 | 85 | 1041.5 |
| 20260831193522 | 74 | 64 | 0.0 | 2.0 | 0.00 | 0.05 | 0.05 | 85 | 1041.6 |
| 20260831193021 | 73 | 68 | 0.0 | 3.0 | 0.00 | 0.05 | 0.05 | 86 | 1041.8 |
| 20260831192520 | 74 | 58 | 0.0 | 5.0 | 0.00 | 0.05 | 0.05 | 86 | 1041.9 |
| 20260831192021 | 74 | 37 | 0.0 | 5.0 | 0.01 | 0.05 | 0.05 | 86 | 1041.9 |
| 20260831191523 | 73 | 207 | 0.0 | 2.0 | 0.01 | 0.05 | 0.05 | 86 | 1041.9 |
| 20260831191016 | 73 | 209 | 0.0 | 1.0 | 0.01 | 0.05 | 0.05 | 87 | 1041.9 |
| 20260831190515 | 73 | 196 | 0.0 | 1.0 | 0.01 | 0.05 | 0.05 | 88 | 1042.2 |
| 20260831190016 | 73 | 196 | 0.0 | 1.0 | 0.01 | 0.05 | 0.05 | 88 | 1042.2 |
| 20260831185515 | 73 | 197 | 0.0 | 0.0 | 0.01 | 0.05 | 0.05 | 89 | 1042.3 |
| 20260831185016 | 72 | 197 | 0.0 | 0.0 | 0.01 | 0.05 | 0.05 | 89 | 1042.3 |
| 20260831184520 | 72 | 197 | 0.0 | 0.0 | 0.01 | 0.05 | 0.05 | 88 | 1042.3 |
| 20260831184015 | 72 | 197 | 0.0 | 0.0 | 0.01 | 0.05 | 0.05 | 88 | 1042.3 |
| 20260831183515 | 72 | 197 | 0.0 | 0.0 | 0.01 | 0.05 | 0.05 | 88 | 1042.4 |
| 20260831183014 | 72 | 197 | 0.0 | 0.0 | 0.02 | 0.05 | 0.05 | 88 | 1042.4 |
| 20260831182614 | 73 | 197 | 0.0 | 0.0 | 0.02 | 0.05 | 0.05 | 86 | 1042.4 |
| 20260831182014 | 73 | 197 | 0.0 | 0.0 | 0.01 | 0.04 | 0.04 | 86 | 1042.7 |
| 20260831181514 | 73 | 197 | 0.0 | 0.0 | 0.01 | 0.04 | 0.04 | 86 | 1042.7 |
| 20260831181013 | 73 | 197 | 0.0 | 1.0 | 0.02 | 0.04 | 0.04 | 87 | 1042.6 |
| 20260831180514 | 73 | 197 | 0.0 | 1.0 | 0.03 | 0.04 | 0.04 | 88 | 1042.7 |
| 20260831180013 | 73 | 197 | 0.0 | 0.0 | 0.04 | 0.04 | 0.04 | 88 | 1042.6 |
| 20260831175513 | 73 | 197 | 0.0 | 1.0 | 0.04 | 0.04 | 0.04 | 88 | 1042.7 |
| 20260831175013 | 73 | 197 | 0.0 | 2.0 | 0.04 | 0.04 | 0.04 | 89 | 1042.7 |
| 20260831174513 | 73 | 196 | 0.0 | 2.0 | 0.04 | 0.04 | 0.04 | 88 | 1042.7 |
| 20260831174014 | 73 | 203 | 0.0 | 0.0 | 0.04 | 0.04 | 0.04 | 91 | 1042.7 |
| 20260831173512 | 72 | 203 | 0.0 | 0.0 | 0.04 | 0.04 | 0.04 | 89 | 1042.8 |
| 20260831173012 | 72 | 203 | 0.0 | 0.0 | 0.03 | 0.03 | 0.03 | 88 | 1043.0 |
| 20260831172513 | 72 | 204 | 0.0 | 0.0 | 0.03 | 0.03 | 0.03 | 87 | 1042.8 |
| 20260831172011 | 73 | 204 | 0.0 | 0.0 | 0.03 | 0.03 | 0.03 | 87 | 1042.9 |
| 20260831171511 | 73 | 203 | 0.0 | 0.0 | 0.03 | 0.03 | 0.03 | 87 | 1042.9 |
| 20260831171011 | 72 | 203 | 0.0 | 0.0 | 0.02 | 0.02 | 0.02 | 85 | 1042.8 |
| 20260831170511 | 72 | 203 | 0.0 | 0.0 | 0.00 | 0.00 | 0.00 | 85 | 1042.8 |
| 20260831170012 | 72 | 203 | 0.0 | 0.0 | 0.00 | 0.00 | 0.00 | 85 | 1042.9 |
| 20260831165510 | 73 | 203 | 0.0 | 1.0 | 0.00 | 0.00 | 0.00 | 84 | 1042.8 |
| 20260831165010 | 73 | 203 | 0.0 | 1.0 | 0.00 | 0.00 | 0.00 | 84 | 1042.8 |
| 20260831164510 | 73 | 203 | 0.0 | 1.0 | 0.00 | 0.00 | 0.00 | 84 | 1042.8 |
| 20260831164013 | 73 | 204 | 0.0 | 1.0 | 0.00 | 0.00 | 0.00 | 85 | 1042.9 |
| 20260831163510 | 73 | 204 | 0.0 | 1.0 | 0.00 | 0.00 | 0.00 | 85 | 1042.9 |
| 20260831163030 | 73 | 203 | 0.0 | 1.0 | 0.00 | 0.00 | 0.00 | 85 | 1042.9 |
| 20260831162510 | 73 | 203 | 0.0 | 0.0 | 0.00 | 0.00 | 0.00 | 85 | 1042.8 |
| 20260831162011 | 73 | 203 | 0.0 | 0.0 | 0.00 | 0.00 | 0.00 | 84 | 1042.8 |
| 20260831161513 | 73 | 203 | 0.0 | 1.0 | 0.00 | 0.00 | 0.00 | 84 | 1043.0 |
| 20260831161008 | 73 | 203 | 0.0 | 1.0 | 0.00 | 0.00 | 0.00 | 84 | 1043.0 |
| 20260831160509 | 73 | 203 | 0.0 | 1.0 | 0.00 | 0.00 | 0.00 | 84 | 1043.1 |
| 20260831160011 | 73 | 203 | 0.0 | 1.0 | 0.00 | 0.00 | 0.00 | 84 | 1043.1 |
| 20260831155509 | 73 | 203 | 0.0 | 0.0 | 0.00 | 0.00 | 0.00 | 84 | 1043.1 |
| 20260831155008 | 73 | 203 | 0.0 | 0.0 | 0.00 | 0.00 | 0.00 | 84 | 1043.2 |
| 20260831154507 | 73 | 203 | 0.0 | 1.0 | 0.00 | 0.00 | 0.00 | 85 | 1043.2 |
| 20260831154009 | 73 | 203 | 0.0 | 1.0 | 0.00 | 0.00 | 0.00 | 85 | 1043.2 |
| 20260831153505 | 73 | 204 | 0.0 | 1.0 | 0.00 | 0.00 | 0.00 | 84 | 1043.2 |
| 20260831153005 | 73 | 205 | 0.0 | 2.0 | 0.00 | 0.00 | 0.00 | 84 | 1043.2 |
| 20260831152508 | 73 | 205 | 0.0 | 2.0 | 0.00 | 0.00 | 0.00 | 85 | 1043.3 |
| 20260831152004 | 72 | 204 | 0.0 | 2.0 | 0.00 | 0.00 | 0.00 | 85 | 1043.2 |
| 20260831151509 | 72 | 205 | 0.0 | 2.0 | 0.00 | 0.00 | 0.00 | 84 | 1043.2 |
| 20260831151003 | 72 | 205 | 0.0 | 3.0 | 0.00 | 0.00 | 0.00 | 85 | 1043.2 |
| 20260831150503 | 72 | 193 | 0.0 | 3.0 | 0.00 | 0.00 | 0.00 | 85 | 1043.3 |
| 20260831150001 | 72 | 233 | 0.0 | 2.0 | 0.00 | 0.00 | 0.00 | 86 | 1043.3 |
| 20260831145600 | 71 | 231 | 0.0 | 2.0 | 0.00 | 0.00 | 0.00 | 87 | 1043.3 |
| 20260831145059 | 71 | 205 | 0.0 | 1.0 | 0.00 | 0.00 | 0.00 | 87 | 1043.3 |
| 20260831144558 | 70 | 203 | 0.0 | 0.0 | 0.00 | 0.00 | 0.00 | 88 | 1043.2 |
| 20260831144057 | 69 | 203 | 0.0 | 0.0 | 0.00 | 0.00 | 0.00 | 88 | 1043.3 |
| 20260831143556 | 69 | 203 | 0.0 | 0.0 | 0.00 | 0.00 | 0.00 | 88 | 1043.3 |
| 20260831143102 | 69 | 202 | 0.0 | 0.0 | 0.00 | 0.00 | 0.00 | 88 | 1043.3 |
| 20260831142557 | 69 | 201 | 0.0 | 0.0 | 0.00 | 0.00 | 0.00 | 89 | 1043.2 |
| 20260831142053 | 69 | 200 | 0.0 | 0.0 | 0.00 | 0.00 | 0.00 | 89 | 1043.2 |
| 20260831141653 | 69 | 200 | 0.0 | 0.0 | 0.00 | 0.00 | 0.00 | 89 | 1043.3 |
| 20260831141053 | 69 | 200 | 0.0 | 0.0 | 0.00 | 0.00 | 0.00 | 89 | 1043.2 |
| 20260831140553 | 69 | 200 | 0.0 | 0.0 | 0.00 | 0.00 | 0.00 | 89 | 1043.3 |
| 20260831140057 | 69 | 200 | 0.0 | 0.0 | 0.00 | 0.00 | 0.00 | 89 | 1043.5 |
| 20260831135553 | 69 | 200 | 0.0 | 0.0 | 0.00 | 0.00 | 0.00 | 89 | 1043.4 |
| 20260831135052 | 69 | 200 | 0.0 | 0.0 | 0.00 | 0.00 | 0.00 | 88 | 1043.4 |
| 20260831134552 | 69 | 200 | 0.0 | 0.0 | 0.00 | 0.00 | 0.00 | 88 | 1043.4 |
| 20260831134052 | 69 | 200 | 0.0 | 0.0 | 0.00 | 0.00 | 0.00 | 88 | 1043.4 |
| 20260831133551 | 69 | 200 | 0.0 | 0.0 | 0.00 | 0.00 | 0.00 | 88 | 1043.4 |
| 20260831133054 | 69 | 200 | 0.0 | 0.0 | 0.00 | 0.00 | 0.00 | 88 | 1043.5 |
| 20260831132551 | 69 | 200 | 0.0 | 0.0 | 0.00 | 0.00 | 0.00 | 88 | 1043.3 |
| 20260831132054 | 69 | 200 | 0.0 | 0.0 | 0.00 | 0.00 | 0.00 | 88 | 1043.3 |
| 20260831131554 | 69 | 200 | 0.0 | 0.0 | 0.00 | 0.00 | 0.00 | 88 | 1043.3 |
| 20260831131052 | 69 | 200 | 0.0 | 0.0 | 0.00 | 0.00 | 0.00 | 88 | 1043.4 |
| 20260831130550 | 69 | 200 | 0.0 | 0.0 | 0.00 | 0.00 | 0.00 | 88 | 1043.4 |
| 20260831130055 | 69 | 200 | 0.0 | 1.0 | 0.00 | 0.00 | 0.00 | 88 | 1043.3 |
| 20260831125549 | 68 | 200 | 0.0 | 1.0 | 0.00 | 0.00 | 0.00 | 89 | 1043.2 |
| 20260831125052 | 68 | 199 | 0.0 | 1.0 | 0.00 | 0.00 | 0.00 | 89 | 1043.2 |
| 20260831124552 | 68 | 200 | 0.0 | 1.0 | 0.00 | 0.00 | 0.00 | 89 | 1043.3 |
| 20260831124048 | 68 | 200 | 0.0 | 1.0 | 0.00 | 0.00 | 0.00 | 89 | 1043.1 |
| 20260831123547 | 68 | 193 | 0.0 | 2.0 | 0.00 | 0.00 | 0.00 | 90 | 1043.1 |
| 20260831123048 | 68 | 193 | 0.0 | 2.0 | 0.00 | 0.00 | 0.00 | 90 | 1043.0 |
| 20260831122548 | 67 | 189 | 0.0 | 2.0 | 0.00 | 0.00 | 0.00 | 90 | 1043.1 |
| 20260831122047 | 67 | 204 | 0.0 | 2.0 | 0.00 | 0.00 | 0.00 | 90 | 1043.0 |
| 20260831121550 | 67 | 205 | 0.0 | 2.0 | 0.00 | 0.00 | 0.00 | 91 | 1042.9 |
| 20260831121046 | 67 | 205 | 0.0 | 1.0 | 0.00 | 0.00 | 0.00 | 91 | 1043.0 |
| 20260831120545 | 67 | 206 | 0.0 | 1.0 | 0.00 | 0.00 | 0.00 | 91 | 1043.1 |
| 20260831120054 | 67 | 220 | 0.0 | 1.0 | 0.00 | 0.00 | 0.00 | 91 | 1043.0 |
| 20260831115546 | 67 | 220 | 0.0 | 3.0 | 0.00 | 0.00 | 0.00 | 91 | 1043.0 |
| 20260831115045 | 67 | 221 | 0.0 | 3.0 | 0.00 | 0.00 | 0.00 | 91 | 1042.9 |
| 20260831114545 | 67 | 202 | 0.0 | 0.0 | 0.00 | 0.00 | 0.00 | 92 | 1043.1 |
| 20260831114048 | 67 | 196 | 0.0 | 0.0 | 0.00 | 0.00 | 0.00 | 92 | 1043.1 |
| 20260831113544 | 67 | 196 | 0.0 | 0.0 | 0.00 | 0.00 | 0.00 | 92 | 1043.0 |
| 20260831113059 | 67 | 196 | 0.0 | 0.0 | 0.00 | 0.00 | 0.00 | 92 | 1043.1 |
| 20260831112546 | 67 | 196 | 0.0 | 2.0 | 0.00 | 0.00 | 0.00 | 92 | 1043.1 |
| 20260831112042 | 66 | 196 | 0.0 | 2.0 | 0.00 | 0.00 | 0.00 | 92 | 1042.9 |
| 20260831111542 | 66 | 181 | 0.0 | 2.0 | 0.00 | 0.00 | 0.00 | 92 | 1042.9 |
| 20260831111043 | 66 | 198 | 0.0 | 1.0 | 0.00 | 0.00 | 0.00 | 92 | 1042.9 |
| 20260831110545 | 66 | 198 | 0.0 | 1.0 | 0.00 | 0.00 | 0.00 | 92 | 1042.8 |
| 20260831110044 | 66 | 192 | 0.0 | 3.0 | 0.00 | 0.00 | 0.00 | 92 | 1042.7 |
| 20260831105542 | 66 | 192 | 0.0 | 3.0 | 0.00 | 0.00 | 0.00 | 92 | 1042.8 |
| 20260831105042 | 66 | 195 | 0.0 | 2.0 | 0.00 | 0.00 | 0.00 | 92 | 1042.7 |
| 20260831104542 | 66 | 185 | 0.0 | 2.0 | 0.00 | 0.00 | 0.00 | 92 | 1042.5 |
| 20260831104042 | 66 | 185 | 0.0 | 2.0 | 0.00 | 0.00 | 0.00 | 93 | 1042.6 |
| 20260831103541 | 66 | 210 | 0.0 | 2.0 | 0.00 | 0.00 | 0.00 | 93 | 1042.6 |
| 20260831103048 | 66 | 206 | 0.0 | 1.0 | 0.00 | 0.00 | 0.00 | 93 | 1042.6 |
| 20260831102541 | 67 | 207 | 0.0 | 0.0 | 0.00 | 0.00 | 0.00 | 93 | 1042.4 |
| 20260831102041 | 67 | 183 | 0.0 | 0.0 | 0.00 | 0.00 | 0.00 | 93 | 1042.4 |
| 20260831101546 | 67 | 182 | 0.0 | 0.0 | 0.00 | 0.00 | 0.00 | 93 | 1042.4 |
| 20260831101041 | 67 | 179 | 0.0 | 0.0 | 0.00 | 0.00 | 0.00 | 93 | 1042.4 |
| 20260831100544 | 67 | 193 | 0.0 | 1.0 | 0.00 | 0.00 | 0.00 | 93 | 1042.4 |
| 20260831100040 | 67 | 191 | 0.0 | 3.0 | 0.00 | 0.00 | 0.00 | 93 | 1042.3 |
| 20260831095540 | 67 | 230 | 0.0 | 3.0 | 0.00 | 0.00 | 0.00 | 93 | 1042.3 |
| 20260831095040 | 67 | 188 | 0.0 | 2.0 | 0.00 | 0.00 | 0.00 | 94 | 1042.3 |
| 20260831094552 | 67 | 214 | 0.0 | 2.0 | 0.00 | 0.00 | 0.00 | 94 | 1042.3 |
| 20260831094040 | 67 | 167 | 0.0 | 2.0 | 0.00 | 0.00 | 0.00 | 94 | 1042.4 |
| 20260831093540 | 67 | 158 | 0.0 | 2.0 | 0.00 | 0.00 | 0.00 | 94 | 1042.5 |
| 20260831093039 | 67 | 203 | 0.0 | 2.0 | 0.00 | 0.00 | 0.00 | 94 | 1042.4 |
| 20260831092538 | 67 | 339 | 0.0 | 0.0 | 0.00 | 0.00 | 0.00 | 94 | 1042.5 |
| 20260831092040 | 67 | 340 | 0.0 | 0.0 | 0.00 | 0.00 | 0.00 | 94 | 1042.4 |
| 20260831091546 | 66 | 339 | 0.0 | 0.0 | 0.00 | 0.00 | 0.00 | 94 | 1042.3 |
| 20260831091038 | 66 | 339 | 0.0 | 0.0 | 0.00 | 0.00 | 0.00 | 94 | 1042.4 |
| 20260831090541 | 66 | 340 | 0.0 | 0.0 | 0.00 | 0.00 | 0.00 | 94 | 1042.5 |
| 20260831090041 | 66 | 340 | 0.0 | 0.0 | 0.00 | 0.00 | 0.00 | 94 | 1042.4 |
| 20260831085538 | 66 | 340 | 0.0 | 0.0 | 0.00 | 0.00 | 0.00 | 94 | 1042.3 |
| 20260831085037 | 66 | 340 | 0.0 | 0.0 | 0.00 | 0.00 | 0.00 | 94 | 1042.3 |
| 20260831084537 | 66 | 339 | 0.0 | 0.0 | 0.00 | 0.00 | 0.00 | 94 | 1042.3 |
| 20260831084037 | 66 | 340 | 0.0 | 0.0 | 0.00 | 0.00 | 0.00 | 94 | 1042.3 |
| 20260831083536 | 66 | 340 | 0.0 | 0.0 | 0.00 | 0.00 | 0.00 | 94 | 1042.3 |
| 20260831083037 | 66 | 340 | 0.0 | 0.0 | 0.00 | 0.00 | 0.00 | 94 | 1042.2 |
| 20260831082536 | 66 | 339 | 0.0 | 0.0 | 0.00 | 0.00 | 0.00 | 94 | 1042.2 |
| 20260831082036 | 66 | 340 | 0.0 | 0.0 | 0.00 | 0.00 | 0.00 | 94 | 1042.2 |
| 20260831081536 | 66 | 340 | 0.0 | 0.0 | 0.00 | 0.00 | 0.00 | 94 | 1042.3 |
| 20260831081036 | 66 | 340 | 0.0 | 0.0 | 0.00 | 0.00 | 0.00 | 94 | 1042.2 |
| 20260831080535 | 66 | 339 | 0.0 | 0.0 | 0.00 | 0.00 | 0.00 | 94 | 1042.2 |
| 20260831080040 | 66 | 339 | 0.0 | 0.0 | 0.00 | 0.00 | 0.00 | 94 | 1042.2 |
| 20260831075537 | 66 | 339 | 0.0 | 0.0 | 0.00 | 0.00 | 0.00 | 94 | 1042.3 |
| 20260831075035 | 66 | 340 | 0.0 | 0.0 | 0.00 | 0.00 | 0.00 | 94 | 1042.5 |
| 20260831074536 | 66 | 340 | 0.0 | 0.0 | 0.00 | 0.00 | 0.00 | 94 | 1042.3 |
| 20260831074038 | 66 | 340 | 0.0 | 0.0 | 0.00 | 0.00 | 0.00 | 94 | 1042.3 |
| 20260831073534 | 66 | 339 | 0.0 | 0.0 | 0.00 | 0.00 | 0.00 | 93 | 1042.2 |
| 20260831073034 | 66 | 339 | 0.0 | 0.0 | 0.00 | 0.00 | 0.00 | 93 | 1042.2 |
| 20260831072533 | 66 | 340 | 0.0 | 0.0 | 0.00 | 0.00 | 0.00 | 93 | 1042.2 |
| 20260831072032 | 66 | 340 | 0.0 | 0.0 | 0.00 | 0.00 | 0.00 | 93 | 1042.4 |
| 20260831071541 | 66 | 340 | 0.0 | 0.0 | 0.00 | 0.00 | 0.00 | 94 | 1042.3 |
| 20260831071032 | 66 | 339 | 0.0 | 0.0 | 0.00 | 0.00 | 0.00 | 94 | 1042.4 |
| 20260831070532 | 66 | 339 | 0.0 | 0.0 | 0.00 | 0.00 | 0.00 | 94 | 1042.5 |
| 20260831070032 | 66 | 339 | 0.0 | 0.0 | 0.00 | 0.00 | 0.00 | 94 | 1042.6 |
| 20260831065531 | 66 | 340 | 0.0 | 0.0 | 0.00 | 0.00 | 0.00 | 93 | 1042.6 |
| 20260831065031 | 66 | 340 | 0.0 | 0.0 | 0.00 | 0.00 | 0.00 | 93 | 1042.5 |
| 20260831064530 | 66 | 339 | 0.0 | 0.0 | 0.00 | 0.00 | 0.00 | 93 | 1042.5 |
| 20260831064030 | 66 | 340 | 0.0 | 0.0 | 0.00 | 0.00 | 0.00 | 93 | 1042.5 |
| 20260831063529 | 66 | 340 | 0.0 | 0.0 | 0.00 | 0.00 | 0.00 | 93 | 1042.5 |
| 20260831063030 | 66 | 339 | 0.0 | 0.0 | 0.00 | 0.00 | 0.00 | 93 | 1042.5 |
| 20260831062529 | 66 | 339 | 0.0 | 0.0 | 0.00 | 0.00 | 0.00 | 93 | 1042.5 |
| 20260831062033 | 67 | 340 | 0.0 | 0.0 | 0.00 | 0.00 | 0.00 | 93 | 1042.5 |
| 20260831061531 | 67 | 340 | 0.0 | 0.0 | 0.00 | 0.00 | 0.00 | 93 | 1042.7 |
| 20260831061031 | 66 | 339 | 0.0 | 0.0 | 0.00 | 0.00 | 0.00 | 93 | 1042.5 |
| 20260831060527 | 67 | 340 | 0.0 | 0.0 | 0.00 | 0.00 | 0.00 | 93 | 1042.6 |
| 20260831060026 | 67 | 340 | 0.0 | 0.0 | 0.00 | 0.00 | 0.00 | 92 | 1042.7 |
| 20260831055527 | 67 | 340 | 0.0 | 0.0 | 0.00 | 0.00 | 0.00 | 92 | 1042.6 |
| 20260831055025 | 67 | 340 | 0.0 | 0.0 | 0.00 | 0.00 | 0.00 | 92 | 1042.7 |
| 20260831054525 | 67 | 340 | 0.0 | 0.0 | 0.00 | 0.00 | 0.00 | 93 | 1042.7 |
| 20260831054028 | 67 | 340 | 0.0 | 0.0 | 0.00 | 0.00 | 0.00 | 93 | 1042.8 |
| 20260831053523 | 68 | 340 | 0.0 | 0.0 | 0.00 | 0.00 | 0.00 | 93 | 1042.7 |
| 20260831053029 | 68 | 340 | 0.0 | 0.0 | 0.00 | 0.00 | 0.00 | 92 | 1042.8 |
| 20260831052524 | 68 | 340 | 0.0 | 0.0 | 0.00 | 0.00 | 0.00 | 92 | 1042.8 |
| 20260831052021 | 68 | 340 | 0.0 | 0.0 | 0.00 | 0.00 | 0.00 | 92 | 1042.8 |
| 20260831051521 | 68 | 339 | 0.0 | 0.0 | 0.00 | 0.00 | 0.00 | 93 | 1042.8 |
| 20260831051022 | 68 | 339 | 0.0 | 0.0 | 0.00 | 0.00 | 0.00 | 93 | 1042.8 |
| 20260831050521 | 68 | 339 | 0.0 | 0.0 | 0.00 | 0.00 | 0.00 | 92 | 1042.7 |
| 20260831050027 | 68 | 340 | 0.0 | 0.0 | 0.00 | 0.00 | 0.00 | 92 | 1042.7 |
| 20260831045521 | 68 | 339 | 0.0 | 0.0 | 0.00 | 0.00 | 0.00 | 92 | 1042.7 |
| 20260831045021 | 68 | 340 | 0.0 | 0.0 | 0.00 | 0.00 | 0.00 | 92 | 1042.7 |
| 20260831044521 | 68 | 340 | 0.0 | 0.0 | 0.00 | 0.00 | 0.00 | 92 | 1042.7 |
| 20260831044021 | 68 | 340 | 0.0 | 1.0 | 0.00 | 0.00 | 0.00 | 92 | 1042.8 |
| 20260831043520 | 68 | 340 | 0.0 | 2.0 | 0.00 | 0.00 | 0.00 | 92 | 1042.8 |
| 20260831043018 | 68 | 340 | 0.0 | 2.0 | 0.00 | 0.00 | 0.00 | 92 | 1042.8 |
| 20260831042522 | 68 | 340 | 0.0 | 0.0 | 0.00 | 0.00 | 0.00 | 91 | 1042.7 |
| 20260831042018 | 68 | 340 | 0.0 | 0.0 | 0.00 | 0.00 | 0.00 | 91 | 1042.7 |
| 20260831041518 | 69 | 339 | 0.0 | 1.0 | 0.00 | 0.00 | 0.00 | 91 | 1042.4 |
| 20260831041017 | 68 | 339 | 0.0 | 1.0 | 0.00 | 0.00 | 0.00 | 91 | 1042.3 |
| 20260831040517 | 68 | 340 | 0.0 | 0.0 | 0.00 | 0.00 | 0.00 | 91 | 1042.6 |
| 20260831040016 | 69 | 340 | 0.0 | 0.0 | 0.00 | 0.00 | 0.00 | 91 | 1042.9 |
| 20260831035518 | 69 | 340 | 0.0 | 1.0 | 0.00 | 0.00 | 0.00 | 91 | 1043.0 |
| 20260831035013 | 69 | 340 | 0.0 | 1.0 | 0.00 | 0.00 | 0.00 | 91 | 1043.1 |
| 20260831034515 | 69 | 340 | 0.0 | 1.0 | 0.00 | 0.00 | 0.00 | 91 | 1043.0 |
| 20260831034013 | 69 | 340 | 0.0 | 0.0 | 0.00 | 0.00 | 0.00 | 91 | 1042.9 |
| 20260831033513 | 69 | 340 | 0.0 | 1.0 | 0.00 | 0.00 | 0.00 | 91 | 1042.8 |
| 20260831033013 | 69 | 340 | 0.0 | 1.0 | 0.00 | 0.00 | 0.00 | 91 | 1042.8 |
| 20260831032513 | 69 | 340 | 0.0 | 1.0 | 0.00 | 0.00 | 0.00 | 90 | 1042.9 |
| 20260831032013 | 70 | 340 | 0.0 | 1.0 | 0.00 | 0.00 | 0.00 | 90 | 1042.9 |
| 20260831031512 | 70 | 340 | 0.0 | 0.0 | 0.00 | 0.00 | 0.00 | 90 | 1042.8 |
| 20260831031012 | 70 | 340 | 0.0 | 0.0 | 0.00 | 0.00 | 0.00 | 90 | 1043.0 |
| 20260831030512 | 70 | 340 | 0.0 | 0.0 | 0.00 | 0.00 | 0.00 | 89 | 1043.2 |
| 20260831030013 | 70 | 340 | 0.0 | 0.0 | 0.00 | 0.00 | 0.00 | 89 | 1043.3 |
| 20260831025512 | 70 | 340 | 0.0 | 1.0 | 0.00 | 0.00 | 0.00 | 89 | 1043.2 |
| 20260831025012 | 70 | 340 | 0.0 | 2.0 | 0.00 | 0.00 | 0.00 | 89 | 1043.3 |
| 20260831024515 | 70 | 340 | 0.0 | 2.0 | 0.00 | 0.00 | 0.00 | 89 | 1043.3 |